[[{"header":{"parameterUnit":"m.s-1","parameterCategory":1,"la1":30.2991,"la2":30.254,"lo1":-89.0895,"lo2":-89.0444,"dy":0.0017,"dx":0.0017,"nx":28,"ny":28,"refTime":"2023-09-14T21:00:00:Z","depth":0,"parameterNumber":2,"parameterNumberName":"U-component_of_WINDS"},"data":[0,0,0,0,0,0,0,0,0,0,0,0,0,0,0,0,0,0,0,0,0,0,0,0,0,0,0,0,0,0,0,0,0,0,0,0,0,0,0,0,0,0,0,0,0,0,0,0,0,0,0,0,0,0,0,0,0,0,-0.4002,-0.4001,0,-0.391,-0.3909,-0.3908,-0.3831,-0.383,-0.3829,-0.3829,-0.3733,-0.3731,-0.3729,0,0,0,0,0,0,0,0,0,0,0,0,0,-0.4107,-0.4106,-0.4002,-0.4001,-0.4,-0.3911,-0.3909,-0.3908,-0.3831,-0.383,-0.3829,-0.3828,-0.3733,-0.3731,-0.3729,0,0,0,0,0,0,0,0,0,0,0,0,0,-0.4043,-0.4105,-0.4002,-0.3951,-0.3945,-0.3911,-0.3909,-0.3908,-0.3831,-0.383,-0.3829,-0.3828,-0.3734,-0.3732,-0.3729,-0.3738,0,0,-0.3721,-0.372,0,0,0,0,0,0,0,0,-0.4047,-0.4039,-0.3959,-0.3954,-0.3948,-0.3881,-0.3911,-0.3851,-0.3832,-0.3875,-0.3829,-0.3827,-0.3783,-0.3776,-0.3762,-0.3733,-0.3729,-0.3721,-0.3719,-0.3718,-0.3717,0,0,0,0,0,0,0,-0.4051,-0.4043,-0.3966,-0.3958,-0.3951,-0.3931,-0.3921,-0.3899,-0.3837,-0.3871,-0.3865,-0.3855,-0.378,-0.3765,-0.3759,-0.3728,-0.3721,-0.3718,-0.3717,-0.3716,-0.3701,-0.3703,0,0,0,0,0,0,-0.4064,-0.4047,-0.3968,-0.3963,-0.3995,-0.393,-0.3919,-0.3904,-0.3837,-0.3826,-0.3856,-0.3852,-0.377,-0.3762,-0.3755,-0.3761,-0.3718,-0.3715,-0.3714,-0.37,-0.3702,-0.3703,0,0,0,0,0,0,-0.4067,-0.4058,-0.3972,-0.4003,-0.3991,-0.393,-0.3914,-0.3902,-0.3887,-0.3826,-0.3814,-0.3853,-0.3768,-0.3759,-0.3743,-0.3757,-0.3714,-0.3712,-0.3699,-0.3701,-0.3702,-0.3773,0,0,0,0,0,0,-0.407,-0.4059,-0.4063,-0.4004,-0.399,-0.3962,-0.3915,-0.3902,-0.3883,-0.3877,-0.382,-0.3809,-0.3767,-0.3747,-0.374,-0.3752,-0.371,-0.3697,-0.37,-0.3702,-0.3769,-0.3777,-0.3784,0,0,0,0,0,-0.4074,-0.4086,-0.4063,-0.4054,-0.3993,-0.3963,-0.3955,-0.3907,-0.3885,-0.3887,-0.3848,-0.3811,-0.3756,-0.3746,-0.3738,-0.3749,-0.3696,-0.3699,-0.3702,-0.3766,-0.3776,-0.3784,0,0,0,0,0,0,-0.4147,-0.4077,-0.4051,-0.4045,-0.4011,-0.395,-0.3952,-0.3918,-0.3889,-0.3884,-0.3825,-0.3813,-0.3803,-0.3774,-0.3764,-0.3754,-0.3721,-0.3722,-0.3773,-0.3782,-0.3789,-0.3796,-0.3708,0,0,0,0,0,-0.4162,-0.4145,-0.4085,-0.4085,-0.4069,-0.4014,-0.3999,-0.3965,-0.3927,-0.3912,-0.3871,-0.3835,-0.3809,-0.3794,-0.3767,-0.3765,-0.3751,-0.3768,-0.3776,-0.3782,-0.3784,-0.378,-0.3787,-0.3712,-0.3712,-0.3712,0,0,-0.4194,-0.4154,-0.4146,-0.4098,-0.4068,-0.405,-0.4002,-0.3986,-0.3972,-0.3909,-0.3891,-0.386,-0.3816,-0.3807,-0.38,-0.3782,-0.3802,-0.3786,-0.3791,-0.3789,-0.3784,-0.3791,-0.3797,-0.3714,-0.3713,-0.3713,0,0,-0.4242,-0.421,-0.4207,-0.4177,-0.4132,-0.4095,-0.4094,-0.4039,-0.4016,-0.3998,-0.395,-0.3932,-0.389,-0.386,-0.384,-0.3877,-0.3842,-0.387,-0.3908,-0.3905,-0.3911,-0.3916,-0.3929,-0.3935,-0.3872,-0.3872,-0.3872,0,-0.4287,-0.426,-0.4209,-0.4195,-0.4176,-0.4118,-0.4114,-0.4087,-0.4036,-0.4023,-0.4003,-0.3949,-0.3915,-0.3898,-0.3907,-0.3893,-0.3889,-0.3876,-0.3915,-0.3919,-0.3923,-0.3935,-0.394,-0.3876,-0.3875,-0.3875,-0.3875,0,-0.4317,-0.4298,-0.4301,-0.4253,-0.4233,-0.4224,-0.4171,-0.4157,-0.4125,-0.409,-0.4072,-0.4029,-0.3993,-0.3986,-0.3954,-0.3964,-0.3955,-0.3926,-0.3892,-0.3935,-0.3945,-0.3949,-0.3881,-0.388,-0.3879,-0.3878,0,0,-0.4408,-0.4333,-0.4335,-0.4312,-0.4258,-0.4242,-0.4231,-0.4196,-0.4185,-0.4151,-0.4139,-0.4105,-0.4078,-0.4055,-0.4019,-0.4016,-0.4048,-0.3987,-0.3985,-0.4,-0.4057,-0.4079,-0.4085,-0.4024,-0.4025,-0.4026,-0.4061,0,-0.4448,-0.4425,-0.4379,-0.437,-0.4352,-0.4297,-0.4287,-0.4252,-0.4219,-0.4199,-0.4161,-0.4138,-0.4104,-0.409,-0.4085,-0.4046,-0.4059,-0.4042,-0.4013,-0.4012,-0.4026,-0.4091,-0.4114,-0.4149,-0.4064,-0.4065,-0.4065,0,-0.4491,-0.4462,-0.4451,-0.4398,-0.4389,-0.4381,-0.4345,-0.4326,-0.4286,-0.4261,-0.4236,-0.4196,-0.418,-0.4149,-0.4126,-0.4116,-0.4101,-0.4079,-0.408,-0.4075,-0.4042,-0.4088,-0.4159,-0.4165,-0.4071,-0.4071,-0.407,0,-0.456,-0.4517,-0.4505,-0.4487,-0.4425,-0.4421,-0.4394,-0.4352,-0.4334,-0.4303,-0.429,-0.4257,-0.4239,-0.4214,-0.4166,-0.4148,-0.4149,-0.4113,-0.4128,-0.4129,-0.413,-0.4131,-0.4201,-0.4121,-0.4121,-0.4121,-0.4121,0,-0.4609,-0.4605,-0.4535,-0.4528,-0.4521,-0.4468,-0.4462,-0.4431,-0.4394,-0.4379,-0.4329,-0.4316,-0.4254,-0.4234,-0.4196,-0.4183,-0.4175,-0.4154,-0.4145,-0.4159,-0.4162,-0.4149,-0.4145,-0.4122,-0.4122,-0.4121,-0.4121,0,-0.4684,-0.4637,-0.4621,-0.4564,-0.4549,-0.4547,-0.4497,-0.4488,-0.4452,-0.4433,-0.4426,-0.4369,-0.4343,-0.4293,-0.4252,-0.4226,-0.4221,-0.4204,-0.4235,-0.4229,-0.4246,-0.4246,-0.431,-0.4316,-0.4233,-0.4234,-0.4234,0,-0.4719,-0.4715,-0.4657,-0.4644,-0.462,-0.4599,-0.4581,-0.4527,-0.451,-0.4463,-0.446,-0.4429,-0.4402,-0.4362,-0.4317,-0.4285,-0.4266,-0.4291,-0.4261,-0.4276,-0.4267,-0.4268,-0.4267,-0.4298,-0.4299,-0.43,-0.4301,0,-0.4786,-0.4763,-0.4738,-0.4706,-0.4686,-0.4658,-0.4627,-0.4619,-0.4558,-0.4541,-0.4514,-0.4493,-0.4451,-0.4422,-0.4383,-0.4355,-0.4318,-0.4311,-0.4312,-0.4327,-0.4346,-0.4336,-0.4254,-0.431,-0.4309,-0.4308,-0.4308,-0.4307,-0.4841,-0.4835,-0.4794,-0.4768,-0.4739,-0.4712,-0.47,-0.4663,-0.464,-0.4602,-0.4572,-0.4547,-0.4506,-0.4451,-0.4425,-0.4404,-0.4386,-0.4389,-0.4389,-0.4391,-0.4397,-0.4349,-0.4397,-0.4396,-0.4396,-0.4396,-0.4396,0,-0.4905,-0.4876,-0.4853,-0.4812,-0.4792,-0.476,-0.4724,-0.4709,-0.4688,-0.4653,-0.4627,-0.4596,-0.4567,-0.4519,-0.4486,-0.4479,-0.4461,-0.4472,-0.4472,-0.4466,-0.4414,-0.4416,-0.4487,-0.4487,-0.4487,-0.4487,-0.4487,-0.4487,-0.4936,-0.4924,-0.4896,-0.4869,-0.4839,-0.4815,-0.4797,-0.4771,-0.4743,-0.471,-0.4686,-0.4656,-0.4615,-0.4579,-0.4551,-0.4537,-0.4528,-0.4544,-0.4526,-0.4478,-0.447,-0.4462,-0.4463,-0.4542,-0.4542,-0.4579,-0.4579,-0.4579]},{"header":{"parameterUnit":"m.s-1","parameterCategory":1,"la1":30.2991,"la2":30.254,"lo1":-89.0895,"lo2":-89.0444,"dy":0.0017,"dx":0.0017,"nx":28,"ny":28,"refTime":"2023-09-14T21:00:00:Z","depth":0,"parameterNumber":3,"parameterNumberName":"V-component_of_WINDS"},"data":[0,0,0,0,0,0,0,0,0,0,0,0,0,0,0,0,0,0,0,0,0,0,0,0,0,0,0,0,0,0,0,0,0,0,0,0,0,0,0,0,0,0,0,0,0,0,0,0,0,0,0,0,0,0,0,0,0,0,0.0951,0.0951,0,0.0951,0.0951,0.0951,0.0964,0.0965,0.0965,0.0965,0.0965,0.0965,0.0965,0,0,0,0,0,0,0,0,0,0,0,0,0,0.0961,0.0961,0.0951,0.0951,0.0951,0.0951,0.0951,0.0951,0.0964,0.0965,0.0965,0.0966,0.0966,0.0965,0.0965,0,0,0,0,0,0,0,0,0,0,0,0,0,0.0958,0.0961,0.0951,0.0958,0.0958,0.0951,0.0951,0.0951,0.0964,0.0965,0.0965,0.0966,0.0966,0.0965,0.0965,0.0951,0,0,0.0963,0.0963,0,0,0,0,0,0,0,0,0.0959,0.0958,0.0957,0.0957,0.0958,0.0958,0.0955,0.0951,0.0964,0.0962,0.0965,0.0966,0.0963,0.0962,0.0961,0.0951,0.0951,0.0963,0.0963,0.0963,0.0963,0,0,0,0,0,0,0,0.0959,0.0958,0.0951,0.0957,0.0957,0.096,0.096,0.0954,0.0959,0.0962,0.0963,0.0963,0.0963,0.0962,0.0961,0.0951,0.0963,0.0963,0.0962,0.0962,0.0927,0.0926,0,0,0,0,0,0,0.0958,0.0958,0.0951,0.0951,0.0959,0.0959,0.096,0.0958,0.0959,0.096,0.0963,0.0964,0.0962,0.0962,0.0961,0.0944,0.0963,0.0962,0.0962,0.0927,0.0927,0.0926,0,0,0,0,0,0,0.0958,0.0957,0.0951,0.0955,0.0954,0.0959,0.0956,0.0957,0.0956,0.096,0.0961,0.096,0.0963,0.0962,0.0953,0.0944,0.0962,0.0962,0.0928,0.0927,0.0926,0.0909,0,0,0,0,0,0,0.0958,0.0957,0.0953,0.0955,0.0954,0.0943,0.0956,0.0957,0.0955,0.0956,0.0958,0.0958,0.0963,0.0954,0.0952,0.0943,0.0961,0.0929,0.0928,0.0927,0.091,0.0907,0.0905,0,0,0,0,0,0.0959,0.0948,0.0952,0.0951,0.0948,0.0942,0.0942,0.0947,0.0954,0.0949,0.0951,0.0958,0.0945,0.0953,0.0951,0.0942,0.093,0.0928,0.0927,0.0911,0.0908,0.0905,0,0,0,0,0,0,0.0946,0.0949,0.0953,0.0943,0.0942,0.0945,0.0938,0.0944,0.0941,0.0943,0.095,0.095,0.0939,0.094,0.0948,0.0928,0.0939,0.0937,0.0927,0.0924,0.0921,0.0921,0.0961,0,0,0,0,0,0.0942,0.0937,0.094,0.0931,0.093,0.0934,0.0932,0.0936,0.0935,0.0935,0.0937,0.0935,0.0931,0.0928,0.0924,0.0911,0.091,0.0904,0.0901,0.0899,0.0897,0.0887,0.0884,0.0921,0.0921,0.0921,0,0,0.0933,0.0934,0.0931,0.0928,0.0928,0.0922,0.0934,0.0928,0.0923,0.0934,0.0925,0.0926,0.0925,0.0913,0.0908,0.0913,0.0886,0.0897,0.0895,0.0894,0.0886,0.0882,0.0879,0.092,0.092,0.0921,0,0,0.0915,0.0916,0.0907,0.0906,0.0905,0.0908,0.0906,0.0907,0.0907,0.0898,0.0906,0.09,0.0893,0.0891,0.0889,0.0867,0.0873,0.0866,0.0852,0.0843,0.084,0.0837,0.0827,0.0824,0.0864,0.0864,0.0864,0,0.0904,0.0896,0.0902,0.0894,0.0892,0.0901,0.0891,0.089,0.0888,0.0886,0.0892,0.0881,0.0882,0.0868,0.0863,0.0862,0.0858,0.0866,0.084,0.0837,0.0835,0.0825,0.0822,0.0863,0.0863,0.0864,0.0864,0,0.0882,0.0876,0.0869,0.0866,0.0863,0.0854,0.0858,0.0854,0.0858,0.0859,0.0849,0.0849,0.0844,0.0842,0.0846,0.0828,0.0831,0.0839,0.085,0.083,0.0821,0.0818,0.0862,0.0862,0.0862,0.0863,0,0,0.0857,0.0855,0.0852,0.085,0.0848,0.0843,0.0835,0.0829,0.0825,0.0823,0.0814,0.0807,0.0813,0.0811,0.0815,0.0807,0.0787,0.0815,0.0815,0.0808,0.0764,0.0758,0.0754,0.0791,0.079,0.079,0.0764,0,0.0837,0.0822,0.0826,0.081,0.0803,0.0811,0.0803,0.08,0.0801,0.0795,0.0796,0.079,0.0799,0.0797,0.079,0.0791,0.0778,0.0793,0.0782,0.0781,0.078,0.0749,0.0743,0.0718,0.0761,0.076,0.076,0,0.0813,0.0808,0.0791,0.0789,0.0786,0.0779,0.0773,0.0767,0.0764,0.0765,0.0762,0.0767,0.0757,0.0768,0.0753,0.0763,0.0759,0.0758,0.0758,0.0756,0.0768,0.0745,0.0711,0.0706,0.0755,0.0755,0.0756,0,0.0793,0.0783,0.0771,0.0769,0.0766,0.076,0.0759,0.0756,0.0752,0.0747,0.0744,0.0738,0.0734,0.0729,0.0732,0.074,0.0716,0.0728,0.0715,0.0715,0.0709,0.0709,0.0672,0.0709,0.0709,0.0709,0.0709,0,0.077,0.0759,0.0762,0.0754,0.0741,0.0746,0.0733,0.0732,0.0729,0.0721,0.0728,0.072,0.0725,0.0717,0.0719,0.0705,0.0704,0.0703,0.0704,0.0702,0.0701,0.0698,0.0699,0.0708,0.0708,0.0708,0.0708,0,0.0746,0.0747,0.0734,0.0732,0.0731,0.0722,0.0719,0.0712,0.0712,0.0702,0.0699,0.07,0.0691,0.0693,0.0684,0.0685,0.0667,0.067,0.0667,0.0668,0.0653,0.0654,0.0612,0.0605,0.0648,0.0648,0.0647,0,0.0731,0.0722,0.0718,0.0713,0.071,0.0702,0.0697,0.07,0.0695,0.0689,0.0682,0.0673,0.0666,0.065,0.065,0.0642,0.0644,0.063,0.0643,0.064,0.0641,0.0641,0.0639,0.0627,0.0626,0.0626,0.0626,0,0.0703,0.0703,0.0696,0.0688,0.0681,0.0675,0.067,0.0665,0.0668,0.0661,0.0651,0.0646,0.0634,0.0625,0.0617,0.0615,0.062,0.0621,0.0618,0.0615,0.0612,0.0611,0.0658,0.0622,0.0623,0.0623,0.0623,0.0623,0.0681,0.0673,0.0668,0.0659,0.0655,0.0649,0.0641,0.0639,0.0631,0.0622,0.0624,0.0612,0.0607,0.0597,0.0594,0.0584,0.0589,0.0584,0.0583,0.0581,0.0578,0.0615,0.0583,0.0583,0.0583,0.0583,0.0583,0,0.0652,0.0648,0.064,0.0631,0.0623,0.0628,0.0622,0.0615,0.0604,0.0599,0.0591,0.0578,0.0569,0.0566,0.0557,0.0549,0.0551,0.0546,0.0546,0.0545,0.0575,0.0578,0.0545,0.0545,0.0545,0.0545,0.0545,0.0545,0.0636,0.0621,0.062,0.0603,0.0599,0.0587,0.0583,0.0577,0.0572,0.0557,0.0549,0.0547,0.0542,0.0532,0.0523,0.0522,0.0517,0.0511,0.0511,0.0539,0.0543,0.0547,0.055,0.0511,0.0511,0.0482,0.0482,0.0481]}]]